Regional Weather Roundup
Issued by NWS Newport/Morehead, NC

Current Version | Previous Version | Text Only | Print | Product List | Glossary On
Versions: 1 2 3 4 5 6 7 8 9 10 11 12 13 14 15 16 17 18 19 20 21 22 23 24 25 26 27 28 29 30 31 32 33 34 35 36 37 38 39 40 41 42 43 44 45 46 47 48 49 50
000
ASUS42 KMHX 230313
RWRMHX
WEATHER ROUNDUP FOR EASTERN NORTH CAROLINA
NATIONAL WEATHER SERVICE NEWPORT/MOREHEAD CITY NC
1100 PM EDT MON MAY 22 2017

NOTE: "FAIR" INDICATES FEW OR NO CLOUDS BELOW 12,000 FEET
WITH NO SIGNIFICANT WEATHER AND/OR OBSTRUCTIONS TO VISIBILITY

NCZ015>017-031-032-045>047-102-103-230400-
NORTH COAST

CITY           SKY/WX    TMP DP  RH WIND       PRES   REMARKS
EDENTON        CLOUDY    72  67  85 CALM      29.98F
ELIZABETH CITY CLOUDY    70  70 100 SW5       29.97S
KITTY HAWK     NOT AVBL
MANTEO         CLOUDY    69  67  93 SW14      29.98F

$$

NCZ045>047-081-094-103-104-230400-
CENTRAL COAST

CITY           SKY/WX    TMP DP  RH WIND       PRES   REMARKS
FRISCO         LGT RAIN  69  65  86 SW12      30.01S

$$

NCZ095-097-098-100-101-230400-
SOUTHERN COAST

CITY           SKY/WX    TMP DP  RH WIND       PRES   REMARKS
BEAUFORT       CLOUDY    76  72  87 S14       29.98F
CEDAR ISLAND   NOT AVBL
JACKSONVILLE   LGT RAIN  68  68 100 W6        29.99F
PINEY ISLAND   NOT AVBL
WILMINGTON     LGT RAIN  68  67  96 CALM      30.00F


$$

NCZ011>013-027>030-043-044-078>080-089-090>093-098-230400-
COASTAL PLAIN

CITY           SKY/WX    TMP DP  RH WIND       PRES   REMARKS
AHOSKIE          N/A     66  66  99 CALM      29.98S
CLINTON        LGT RAIN  67  67 100 CALM      30.00F
ELIZABETHTOWN  RAIN      67  67 100 CALM      30.01R
GOLDSBORO      LGT RAIN  70  70 100 SW7       29.98S
GREENVILLE     CLOUDY    73  70  88 SW7       30.00S
HAVELOCK       CLOUDY    73  68  84 W7        30.00R
KENANSVILLE    LGT RAIN  66  66 100 CALM      30.00S FOG
KINSTON        LGT RAIN  70  69  95 CALM      30.01R
NEW BERN       LGT RAIN  70  68  93 W5        30.00S
RICHLANDS      LGT RAIN  67  67 100 SW5       30.00F
ROCKY MOUNT    CLOUDY    72  70  93 CALM      29.97F
WASHINGTON     CLOUDY    71  66  85 SW3       29.98F
WHITEVILLE     RAIN      67  66  97 CALM      30.00R

$$

AMZ130-135-150-152-154-156-158-170-250-252-270-ANZ085-086-088-633-658-670-230400-
MARINE OBSERVATIONS

STATION/POSITION TIME  TEMP    WIND        PRES    WAVE   SWELL
                       AIR SEA DIR/SP/G            HT/PER HT/PER
                 (UTC) (F)     (DEG/KT/KT) (MB)    (FT/S) (FT/S)
CHESAPEAKE LIGHT NOT AVBL
64 E VA BEACH    0250   67 67  230/ 16/ 19 1014.2    4/ 8   2/ 8
DUCK             0236   71 65  200/  8/ 11 1014.3
2 E DUCK         0300      66                N/A     2/ 9
OREGON INLET     0236   71 75  210/ 14/ 16 1014.9
13E OREGON INLT  0248      66                N/A     3/ 7   2/ 7
HATTERAS CG      0236   69 75  190/  6/ 15 1016.0
DIAMOND BUOY     0250   71 78  290/ 17/ 21 1016.4    4/ 9   2/ 9
CAPE LOOKOUT     0300   76     210/  7/  9 1015.2
BEAUFORT LAB     0236   76 74  210/  7/ 10 1014.6
30 SE NEW RVR IN 0208   76 76  220/ 12/ 16 1015.7
30 SE NEW RVR IN 0243      76                N/A     4/ 5
27 SE WRIGHTSVLE 0208   74 76  300/ 12/ 19 1015.4
5 SE WRIGHTSVLE  0208   69 75  290/  8/ 16 1016.8
225 S CAPE HAT   0250   76 77  190/ 12/ 16 1018.6    3/ 8   2/ 8
41 SE CHARLESTON 0300   78 78  180/ 10/ 12 1015.0

$$



USA.gov is the U.S. government's official web portal to all federal, state and local government web resources and services.